TimeMDT,TemperatureF,Dew PointF,Humidity,Sea Level PressureIn,VisibilityMPH,Wind Direction,Wind SpeedMPH,Gust SpeedMPH,PrecipitationIn,Events,Conditions,WindDirDegrees,DateUTC
12:15 AM,62.6,46.4,55,30.20,10.0,ESE,20.7,-,N/A,,Scattered Clouds,120,2013-08-24 06:15:00
12:35 AM,62.6,46.4,55,30.20,10.0,ESE,19.6,-,N/A,,Mostly Cloudy,110,2013-08-24 06:35:00
12:55 AM,62.6,46.4,55,30.18,10.0,ESE,13.8,21.9,N/A,,Scattered Clouds,110,2013-08-24 06:55:00
1:15 AM,60.8,46.4,59,30.19,10.0,ESE,10.4,-,N/A,,Clear,120,2013-08-24 07:15:00
1:35 AM,60.8,46.4,59,30.20,10.0,Calm,Calm,-,N/A,,Clear,0,2013-08-24 07:35:00
1:55 AM,60.8,46.4,59,30.21,10.0,Calm,Calm,-,N/A,,Clear,0,2013-08-24 07:55:00
2:15 AM,60.8,46.4,59,30.20,10.0,East,4.6,-,N/A,,Clear,80,2013-08-24 08:15:00
2:35 AM,59.0,46.4,63,30.20,10.0,NE,8.1,-,N/A,,Clear,50,2013-08-24 08:35:00
2:55 AM,59.0,46.4,63,30.21,10.0,NNE,8.1,-,N/A,,Scattered Clouds,20,2013-08-24 08:55:00
3:15 AM,59.0,46.4,63,30.21,10.0,NE,6.9,-,N/A,,Scattered Clouds,40,2013-08-24 09:15:00
3:35 AM,59.0,46.4,63,30.21,10.0,Calm,Calm,-,N/A,,Mostly Cloudy,0,2013-08-24 09:35:00
3:55 AM,59.0,46.4,63,30.21,10.0,NW,3.5,-,N/A,,Overcast,320,2013-08-24 09:55:00
4:15 AM,59.0,46.4,63,30.22,10.0,West,4.6,-,N/A,,Overcast,270,2013-08-24 10:15:00
4:35 AM,59.0,44.6,59,30.22,10.0,Calm,Calm,-,N/A,,Overcast,0,2013-08-24 10:35:00
4:55 AM,59.0,44.6,59,30.21,10.0,WNW,5.8,-,N/A,Rain,Light Rain,300,2013-08-24 10:55:00
5:15 AM,59.0,44.6,59,30.22,10.0,West,6.9,-,N/A,,Overcast,280,2013-08-24 11:15:00
5:35 AM,59.0,44.6,59,30.21,10.0,WNW,4.6,-,N/A,,Overcast,300,2013-08-24 11:35:00
5:55 AM,59.0,44.6,59,30.21,10.0,WNW,6.9,-,N/A,,Overcast,300,2013-08-24 11:55:00
6:15 AM,59.0,44.6,59,30.21,10.0,NW,6.9,-,N/A,,Overcast,320,2013-08-24 12:15:00
6:35 AM,59.0,44.6,59,30.22,10.0,NW,3.5,-,N/A,,Mostly Cloudy,320,2013-08-24 12:35:00
6:55 AM,59.0,44.6,59,30.23,10.0,Calm,Calm,-,N/A,,Scattered Clouds,0,2013-08-24 12:55:00
7:15 AM,59.0,44.6,59,30.23,10.0,North,3.5,-,N/A,,Mostly Cloudy,10,2013-08-24 13:15:00
7:35 AM,59.0,44.6,59,30.24,10.0,Calm,Calm,-,N/A,,Overcast,0,2013-08-24 13:35:00
7:55 AM,59.0,44.6,59,30.24,10.0,NNW,4.6,-,N/A,,Overcast,330,2013-08-24 13:55:00
8:15 AM,59.0,44.6,59,30.24,10.0,NW,8.1,-,N/A,,Overcast,320,2013-08-24 14:15:00
8:35 AM,59.0,46.4,63,30.24,10.0,NNW,9.2,-,N/A,,Overcast,330,2013-08-24 14:35:00
8:55 AM,59.0,46.4,63,30.25,10.0,NW,11.5,-,N/A,,Overcast,310,2013-08-24 14:55:00
9:15 AM,59.0,46.4,63,30.26,10.0,NW,11.5,-,N/A,,Overcast,320,2013-08-24 15:15:00
9:35 AM,60.8,46.4,59,30.26,10.0,NNW,10.4,-,N/A,,Mostly Cloudy,330,2013-08-24 15:35:00
9:55 AM,62.6,44.6,52,30.26,10.0,North,11.5,-,N/A,,Clear,360,2013-08-24 15:55:00
10:15 AM,62.6,44.6,52,30.26,10.0,NNW,12.7,16.1,N/A,,Clear,340,2013-08-24 16:15:00
10:35 AM,62.6,44.6,52,30.27,10.0,NW,10.4,16.1,N/A,,Clear,320,2013-08-24 16:35:00
10:55 AM,64.4,44.6,49,30.28,10.0,North,10.4,-,N/A,,Clear,350,2013-08-24 16:55:00
11:15 AM,64.4,42.8,45,30.28,10.0,NNW,5.8,-,N/A,,Clear,330,2013-08-24 17:15:00
11:35 AM,64.4,42.8,45,30.28,10.0,WNW,3.5,-,N/A,,Clear,300,2013-08-24 17:35:00
11:55 AM,66.2,42.8,43,30.28,10.0,NW,5.8,-,N/A,,Clear,320,2013-08-24 17:55:00
12:15 PM,68.0,41.0,37,30.28,10.0,WSW,3.5,-,N/A,,Clear,240,2013-08-24 18:15:00
12:35 PM,71.6,42.8,35,30.28,10.0,SSE,10.4,16.1,N/A,,Scattered Clouds,150,2013-08-24 18:35:00
12:55 PM,69.8,42.8,38,30.28,10.0,SE,10.4,17.3,N/A,,Scattered Clouds,130,2013-08-24 18:55:00
1:15 PM,71.6,42.8,35,30.28,10.0,SSE,9.2,16.1,N/A,,Scattered Clouds,150,2013-08-24 19:15:00
1:35 PM,71.6,42.8,35,30.28,10.0,SE,5.8,-,N/A,,Scattered Clouds,140,2013-08-24 19:35:00
1:55 PM,71.6,39.2,31,30.28,10.0,South,9.2,16.1,N/A,,Scattered Clouds,170,2013-08-24 19:55:00
2:15 PM,73.4,39.2,29,30.28,10.0,ESE,4.6,18.4,N/A,,Mostly Cloudy,110,2013-08-24 20:15:00
2:35 PM,73.4,37.4,27,30.28,10.0,ENE,3.5,-,N/A,,Scattered Clouds,70,2013-08-24 20:35:00
2:55 PM,77.0,35.6,22,30.27,10.0,SSE,5.8,-,N/A,,Scattered Clouds,160,2013-08-24 20:55:00
3:15 PM,75.2,35.6,24,30.27,10.0,SSE,8.1,17.3,N/A,,Scattered Clouds,160,2013-08-24 21:15:00
3:35 PM,77.0,35.6,22,30.25,10.0,SE,15.0,20.7,N/A,,Scattered Clouds,140,2013-08-24 21:35:00
3:55 PM,73.4,32.0,22,30.26,10.0,ESE,8.1,-,N/A,,Scattered Clouds,120,2013-08-24 21:55:00
4:15 PM,73.4,33.8,23,30.26,10.0,East,8.1,19.6,N/A,,Mostly Cloudy,100,2013-08-24 22:15:00
4:35 PM,73.4,35.6,25,30.26,10.0,NNW,15.0,18.4,N/A,,Mostly Cloudy,330,2013-08-24 22:35:00
4:55 PM,71.6,35.6,27,30.26,10.0,North,13.8,-,N/A,,Mostly Cloudy,350,2013-08-24 22:55:00
5:15 PM,73.4,35.6,25,30.26,10.0,NNE,10.4,-,N/A,,Mostly Cloudy,20,2013-08-24 23:15:00
5:35 PM,73.4,33.8,23,30.26,10.0,NNE,3.5,-,N/A,,Scattered Clouds,20,2013-08-24 23:35:00
5:55 PM,71.6,33.8,25,30.26,10.0,NNE,8.1,-,N/A,,Clear,30,2013-08-24 23:55:00
6:15 PM,71.6,35.6,27,30.26,10.0,North,12.7,-,N/A,,Mostly Cloudy,350,2013-08-25 00:15:00
6:35 PM,73.4,35.6,25,30.26,10.0,North,12.7,-,N/A,,Overcast,360,2013-08-25 00:35:00
6:55 PM,68.0,37.4,33,30.26,10.0,NNW,20.7,-,N/A,,Mostly Cloudy,330,2013-08-25 00:55:00
7:15 PM,64.4,39.2,40,30.26,10.0,NW,24.2,-,N/A,,Clear,320,2013-08-25 01:15:00
7:35 PM,64.4,41.0,42,30.27,10.0,NNW,20.7,-,N/A,,Clear,330,2013-08-25 01:35:00
7:55 PM,62.6,41.0,45,30.28,10.0,NW,21.9,-,N/A,,Mostly Cloudy,320,2013-08-25 01:55:00
8:15 PM,62.6,41.0,45,30.28,10.0,NNW,19.6,-,N/A,,Scattered Clouds,330,2013-08-25 02:15:00
8:35 PM,60.8,41.0,48,30.28,10.0,NNW,16.1,-,N/A,,Scattered Clouds,330,2013-08-25 02:35:00
8:55 PM,60.8,41.0,48,30.28,10.0,NNW,16.1,-,N/A,,Clear,340,2013-08-25 02:55:00
9:15 PM,60.8,41.0,48,30.29,10.0,North,15.0,-,N/A,,Mostly Cloudy,350,2013-08-25 03:15:00
9:35 PM,62.6,41.0,45,30.30,10.0,NNW,12.7,-,N/A,,Mostly Cloudy,330,2013-08-25 03:35:00
9:55 PM,60.8,41.0,48,30.31,10.0,North,12.7,-,N/A,,Overcast,360,2013-08-25 03:55:00
10:15 PM,62.6,41.0,45,30.31,10.0,North,5.8,-,N/A,,Mostly Cloudy,350,2013-08-25 04:15:00
10:35 PM,62.6,41.0,45,30.31,10.0,North,5.8,-,N/A,,Mostly Cloudy,360,2013-08-25 04:35:00
10:55 PM,62.6,41.0,45,30.31,10.0,Calm,Calm,-,N/A,,Scattered Clouds,0,2013-08-25 04:55:00
11:15 PM,64.4,39.2,40,30.31,10.0,Calm,Calm,-,N/A,,Clear,0,2013-08-25 05:15:00
11:35 PM,64.4,39.2,40,30.32,10.0,Calm,Calm,-,N/A,,Scattered Clouds,0,2013-08-25 05:35:00
11:55 PM,68.0,35.6,30,30.32,10.0,SE,4.6,-,N/A,,Scattered Clouds,140,2013-08-25 05:55:00